Time,TemperatureF,DewpointF,PressureIn,WindDirection,WindDirectionDegrees,WindSpeedMPH,WindSpeedGustMPH,Humidity,HourlyPrecipIn,Conditions,Clouds,dailyrainin,SoftwareType,DateUTC
2013-09-08 00:01:00,75.8,68.8,29.91,SSW,198,0.0,0.0,79,0.00,,,0.00,VWS V14.01,2013-09-08 05:01:00,
2013-09-08 00:06:00,75.8,68.5,29.90,SSW,198,0.0,0.0,78,0.00,,,0.00,VWS V14.01,2013-09-08 05:06:00,
2013-09-08 00:11:00,75.8,68.5,29.91,SSW,198,0.0,0.0,78,0.00,,,0.00,VWS V14.01,2013-09-08 05:11:00,
2013-09-08 00:16:00,75.8,68.8,29.91,SSW,198,0.0,0.0,79,0.00,,,0.00,VWS V14.01,2013-09-08 05:16:00,
2013-09-08 00:21:00,75.7,69.1,29.90,SSW,198,0.0,0.0,80,0.00,,,0.00,VWS V14.01,2013-09-08 05:21:00,
2013-09-08 00:26:00,75.6,69.0,29.90,SSW,198,0.0,0.0,80,0.00,,,0.00,VWS V14.01,2013-09-08 05:26:00,
2013-09-08 00:31:00,75.5,69.3,29.90,SSW,198,0.0,0.0,81,0.00,,,0.00,VWS V14.01,2013-09-08 05:31:00,
2013-09-08 00:36:00,75.3,69.1,29.91,SSW,198,0.0,0.0,81,0.00,,,0.00,VWS V14.01,2013-09-08 05:36:00,
2013-09-08 00:41:00,75.1,69.2,29.90,SSW,198,0.0,0.0,82,0.00,,,0.00,VWS V14.01,2013-09-08 05:41:00,
2013-09-08 00:46:00,74.9,69.4,29.89,SSW,198,0.0,0.0,83,0.00,,,0.00,VWS V14.01,2013-09-08 05:46:00,
2013-09-08 00:51:00,74.6,69.8,29.90,SSW,198,0.0,0.0,85,0.00,,,0.00,VWS V14.01,2013-09-08 05:51:00,
2013-09-08 00:56:00,74.2,69.4,29.90,SSW,198,0.0,0.0,85,0.00,,,0.00,VWS V14.01,2013-09-08 05:56:00,
2013-09-08 01:01:00,73.9,69.4,29.90,SSW,198,0.0,0.0,86,0.00,,,0.00,VWS V14.01,2013-09-08 06:01:00,
2013-09-08 01:06:00,73.7,69.3,29.90,SSW,198,0.0,0.0,86,0.00,,,0.00,VWS V14.01,2013-09-08 06:06:00,
2013-09-08 01:11:00,73.5,69.4,29.90,SSW,198,0.0,0.0,87,0.00,,,0.00,VWS V14.01,2013-09-08 06:11:00,
2013-09-08 01:16:00,73.3,69.2,29.90,SSW,198,0.0,0.0,87,0.00,,,0.00,VWS V14.01,2013-09-08 06:16:00,
2013-09-08 01:21:00,73.2,69.1,29.89,SSW,198,0.0,0.0,87,0.00,,,0.00,VWS V14.01,2013-09-08 06:21:00,
2013-09-08 01:26:00,73.1,69.0,29.89,SSW,198,0.0,0.0,87,0.00,,,0.00,VWS V14.01,2013-09-08 06:26:00,
2013-09-08 01:31:00,73.1,69.0,29.89,SSW,198,0.0,0.0,87,0.00,,,0.00,VWS V14.01,2013-09-08 06:31:00,
2013-09-08 01:36:00,73.1,69.3,29.90,SSW,198,0.0,0.0,88,0.00,,,0.00,VWS V14.01,2013-09-08 06:36:00,
2013-09-08 01:41:00,73.0,69.2,29.90,SSW,198,0.0,0.0,88,0.00,,,0.00,VWS V14.01,2013-09-08 06:41:00,
2013-09-08 01:45:00,72.8,69.0,29.90,SSW,198,0.0,0.0,88,0.00,,,0.00,VWS V14.01,2013-09-08 06:45:00,
2013-09-08 01:51:00,72.8,69.4,29.90,SSW,198,0.0,0.0,89,0.00,,,0.00,VWS V14.01,2013-09-08 06:51:00,
2013-09-08 01:56:00,72.6,69.2,29.89,SSW,198,0.0,0.0,89,0.00,,,0.00,VWS V14.01,2013-09-08 06:56:00,
2013-09-08 02:00:00,72.5,69.1,29.90,SSW,198,0.0,0.0,89,0.00,,,0.00,VWS V14.01,2013-09-08 07:00:00,
2013-09-08 02:05:00,72.3,68.9,29.89,SSW,198,0.0,0.0,89,0.00,,,0.00,VWS V14.01,2013-09-08 07:05:00,
2013-09-08 02:10:00,72.1,69.0,29.89,SSW,198,0.0,0.0,90,0.00,,,0.00,VWS V14.01,2013-09-08 07:10:00,
2013-09-08 02:15:00,72.0,68.9,29.89,SSW,198,0.0,0.0,90,0.00,,,0.00,VWS V14.01,2013-09-08 07:15:00,
2013-09-08 02:20:00,71.9,68.8,29.89,SSW,198,0.0,0.0,90,0.00,,,0.00,VWS V14.01,2013-09-08 07:20:00,
2013-09-08 02:25:00,71.8,68.7,29.89,SSW,198,0.0,0.0,90,0.00,,,0.00,VWS V14.01,2013-09-08 07:25:00,
2013-09-08 02:31:00,71.8,68.7,29.89,SSW,198,0.0,0.0,90,0.00,,,0.00,VWS V14.01,2013-09-08 07:31:00,
2013-09-08 02:36:00,71.7,68.6,29.90,SSW,198,0.0,0.0,90,0.00,,,0.00,VWS V14.01,2013-09-08 07:36:00,
2013-09-08 02:40:00,71.7,68.6,29.90,SSW,198,0.0,0.0,90,0.00,,,0.00,VWS V14.01,2013-09-08 07:40:00,
2013-09-08 02:45:00,71.6,68.5,29.90,SSW,198,0.0,0.0,90,0.00,,,0.00,VWS V14.01,2013-09-08 07:45:00,
2013-09-08 02:50:00,71.5,68.4,29.90,SSW,198,0.0,0.0,90,0.00,,,0.00,VWS V14.01,2013-09-08 07:50:00,
2013-09-08 02:55:00,71.4,68.6,29.91,SSW,198,0.0,0.0,91,0.00,,,0.00,VWS V14.01,2013-09-08 07:55:00,
2013-09-08 03:00:00,71.4,68.6,29.90,SSW,198,0.0,0.0,91,0.00,,,0.00,VWS V14.01,2013-09-08 08:00:00,
2013-09-08 03:05:00,71.3,68.5,29.90,SSW,198,0.0,0.0,91,0.00,,,0.00,VWS V14.01,2013-09-08 08:05:00,
2013-09-08 03:10:00,71.2,68.4,29.88,SSW,198,0.0,0.0,91,0.00,,,0.00,VWS V14.01,2013-09-08 08:10:00,
2013-09-08 03:15:00,71.1,68.3,29.88,SSW,198,0.0,0.0,91,0.00,,,0.00,VWS V14.01,2013-09-08 08:15:00,
2013-09-08 03:20:00,71.2,68.8,29.88,SSW,198,0.0,0.0,92,0.00,,,0.00,VWS V14.01,2013-09-08 08:20:00,
2013-09-08 03:25:00,71.2,68.8,29.89,SSW,198,0.0,0.0,92,0.00,,,0.00,VWS V14.01,2013-09-08 08:25:00,
2013-09-08 03:30:00,71.3,68.9,29.88,SSW,198,0.0,0.0,92,0.00,,,0.00,VWS V14.01,2013-09-08 08:30:00,
2013-09-08 03:35:00,71.3,68.9,29.89,SSW,198,0.0,0.0,92,0.00,,,0.00,VWS V14.01,2013-09-08 08:35:00,
2013-09-08 03:40:00,71.3,68.5,29.88,SSW,198,0.0,0.0,91,0.00,,,0.00,VWS V14.01,2013-09-08 08:40:00,
2013-09-08 03:45:00,71.3,68.5,29.88,SSW,198,0.0,0.0,91,0.00,,,0.00,VWS V14.01,2013-09-08 08:45:00,
2013-09-08 03:50:00,71.3,68.9,29.88,SSW,198,0.0,0.0,92,0.00,,,0.00,VWS V14.01,2013-09-08 08:50:00,
2013-09-08 03:55:00,71.3,68.5,29.90,SSW,198,0.0,0.0,91,0.00,,,0.00,VWS V14.01,2013-09-08 08:55:00,
2013-09-08 04:00:00,71.3,68.5,29.90,SSW,198,0.0,0.0,91,0.00,,,0.00,VWS V14.01,2013-09-08 09:00:00,
2013-09-08 04:05:00,71.3,68.5,29.90,SSW,198,0.0,0.0,91,0.00,,,0.00,VWS V14.01,2013-09-08 09:05:00,
2013-09-08 04:10:00,71.4,68.6,29.90,SSW,198,0.0,0.0,91,0.00,,,0.00,VWS V14.01,2013-09-08 09:10:00,
2013-09-08 04:15:00,71.5,68.7,29.90,SSW,198,0.0,0.0,91,0.00,,,0.00,VWS V14.01,2013-09-08 09:15:00,
2013-09-08 04:20:00,71.5,68.7,29.92,SSW,198,0.0,0.0,91,0.00,,,0.00,VWS V14.01,2013-09-08 09:20:00,
2013-09-08 04:25:00,71.4,68.6,29.92,SSW,198,0.0,0.0,91,0.00,,,0.00,VWS V14.01,2013-09-08 09:25:00,
2013-09-08 04:30:00,71.5,69.1,29.92,SSW,198,0.0,0.0,92,0.00,,,0.00,VWS V14.01,2013-09-08 09:30:00,
2013-09-08 04:35:00,71.5,68.7,29.92,SSW,198,0.0,0.0,91,0.00,,,0.00,VWS V14.01,2013-09-08 09:35:00,
2013-09-08 04:40:00,71.5,68.7,29.92,SSW,198,0.0,0.0,91,0.00,,,0.00,VWS V14.01,2013-09-08 09:40:00,
2013-09-08 04:45:00,71.4,68.6,29.92,SSW,198,0.0,0.0,91,0.00,,,0.00,VWS V14.01,2013-09-08 09:45:00,
2013-09-08 04:50:00,71.3,68.5,29.91,SSW,198,0.0,0.0,91,0.00,,,0.00,VWS V14.01,2013-09-08 09:50:00,
2013-09-08 04:55:00,71.2,68.4,29.90,SSW,198,0.0,0.0,91,0.00,,,0.00,VWS V14.01,2013-09-08 09:55:00,
2013-09-08 05:00:00,71.2,68.4,29.89,SSW,198,0.0,0.0,91,0.00,,,0.00,VWS V14.01,2013-09-08 10:00:00,
2013-09-08 05:05:00,71.2,68.4,29.90,SSW,198,0.0,0.0,91,0.00,,,0.00,VWS V14.01,2013-09-08 10:05:00,
2013-09-08 05:10:00,71.2,68.4,29.90,SSW,198,0.0,0.0,91,0.00,,,0.00,VWS V14.01,2013-09-08 10:10:00,
2013-09-08 05:15:00,71.1,68.3,29.90,SSW,198,0.0,0.0,91,0.00,,,0.00,VWS V14.01,2013-09-08 10:15:00,
2013-09-08 05:20:00,71.1,68.3,29.90,SSW,198,0.0,0.0,91,0.00,,,0.00,VWS V14.01,2013-09-08 10:20:00,
2013-09-08 05:25:00,71.1,68.3,29.90,SSW,198,0.0,0.0,91,0.00,,,0.00,VWS V14.01,2013-09-08 10:25:00,
2013-09-08 05:30:00,71.0,68.2,29.92,SSW,198,0.0,0.0,91,0.00,,,0.00,VWS V14.01,2013-09-08 10:30:00,
2013-09-08 05:35:00,70.8,68.4,29.92,SSW,198,0.0,0.0,92,0.00,,,0.00,VWS V14.01,2013-09-08 10:35:00,
2013-09-08 05:40:00,70.8,68.4,29.92,SSW,198,0.0,0.0,92,0.00,,,0.00,VWS V14.01,2013-09-08 10:40:00,
2013-09-08 05:45:00,70.7,68.3,29.92,SSW,198,0.0,0.0,92,0.00,,,0.00,VWS V14.01,2013-09-08 10:45:00,
2013-09-08 05:50:00,70.7,68.3,29.92,SSW,198,0.0,0.0,92,0.00,,,0.00,VWS V14.01,2013-09-08 10:50:00,
2013-09-08 05:55:00,70.7,68.3,29.92,SSW,198,0.0,0.0,92,0.00,,,0.00,VWS V14.01,2013-09-08 10:55:00,
2013-09-08 06:00:00,70.7,68.3,29.92,SSW,198,0.0,0.0,92,0.00,,,0.00,VWS V14.01,2013-09-08 11:00:00,
2013-09-08 06:05:00,70.7,68.3,29.93,SSW,198,0.0,0.0,92,0.00,,,0.00,VWS V14.01,2013-09-08 11:05:00,
2013-09-08 06:10:00,70.7,68.3,29.93,SSW,198,0.0,0.0,92,0.00,,,0.00,VWS V14.01,2013-09-08 11:10:00,
2013-09-08 06:15:00,70.6,68.2,29.92,SSW,198,0.0,0.0,92,0.00,,,0.00,VWS V14.01,2013-09-08 11:15:00,
2013-09-08 06:20:00,70.6,68.2,29.92,SSW,198,0.0,0.0,92,0.00,,,0.00,VWS V14.01,2013-09-08 11:20:00,
2013-09-08 06:25:00,70.6,68.2,29.92,SSW,198,0.0,0.0,92,0.00,,,0.00,VWS V14.01,2013-09-08 11:25:00,
2013-09-08 06:30:00,70.6,68.2,29.92,SSW,198,0.0,0.0,92,0.00,,,0.00,VWS V14.01,2013-09-08 11:30:00,
2013-09-08 06:35:00,70.6,68.2,29.92,SSW,198,0.0,0.0,92,0.00,,,0.00,VWS V14.01,2013-09-08 11:35:00,
2013-09-08 06:40:00,70.6,68.2,29.92,SSW,198,0.0,0.0,92,0.00,,,0.00,VWS V14.01,2013-09-08 11:40:00,
2013-09-08 06:45:00,70.6,68.2,29.93,SSW,198,0.0,0.0,92,0.00,,,0.00,VWS V14.01,2013-09-08 11:45:00,
2013-09-08 06:50:00,70.6,68.2,29.94,SSW,198,0.0,0.0,92,0.00,,,0.00,VWS V14.01,2013-09-08 11:50:00,
2013-09-08 06:55:00,70.5,68.1,29.95,SSW,198,0.0,0.0,92,0.00,,,0.00,VWS V14.01,2013-09-08 11:55:00,
2013-09-08 07:00:00,70.5,68.1,29.95,SSW,198,0.0,0.0,92,0.00,,,0.00,VWS V14.01,2013-09-08 12:00:00,
2013-09-08 07:05:00,70.5,68.1,29.95,SSW,198,0.0,0.0,92,0.00,,,0.00,VWS V14.01,2013-09-08 12:05:00,
2013-09-08 07:10:00,70.5,68.1,29.94,SSW,198,0.0,0.0,92,0.00,,,0.00,VWS V14.01,2013-09-08 12:10:00,
2013-09-08 07:15:00,70.5,68.1,29.94,SSW,198,0.0,0.0,92,0.00,,,0.00,VWS V14.01,2013-09-08 12:15:00,
2013-09-08 07:20:00,70.5,68.1,29.94,SSW,198,0.0,0.0,92,0.00,,,0.00,VWS V14.01,2013-09-08 12:20:00,
2013-09-08 07:25:00,70.6,68.5,29.94,SSW,198,0.0,0.0,93,0.00,,,0.00,VWS V14.01,2013-09-08 12:25:00,
2013-09-08 07:30:00,70.7,68.6,29.94,SSW,198,0.0,0.0,93,0.00,,,0.00,VWS V14.01,2013-09-08 12:30:00,
2013-09-08 07:35:00,70.9,68.8,29.94,SSW,198,0.0,0.0,93,0.00,,,0.00,VWS V14.01,2013-09-08 12:35:00,
2013-09-08 07:40:00,71.2,68.8,29.94,SSW,198,0.0,0.0,92,0.00,,,0.00,VWS V14.01,2013-09-08 12:40:00,
2013-09-08 07:45:00,71.5,69.1,29.93,SSW,198,0.0,0.0,92,0.00,,,0.00,VWS V14.01,2013-09-08 12:45:00,
2013-09-08 07:50:00,71.8,69.0,29.94,SSW,198,0.0,0.0,91,0.00,,,0.00,VWS V14.01,2013-09-08 12:50:00,
2013-09-08 07:55:00,72.1,69.0,29.94,East,82,0.0,1.0,90,0.00,,,0.00,VWS V14.01,2013-09-08 12:55:00,
2013-09-08 08:00:00,72.4,69.3,29.95,East,82,0.0,1.0,90,0.00,,,0.00,VWS V14.01,2013-09-08 13:00:00,
2013-09-08 08:05:00,72.6,69.2,29.95,SE,141,0.0,0.0,89,0.00,,,0.00,VWS V14.01,2013-09-08 13:05:00,
2013-09-08 08:10:00,72.9,69.5,29.95,SE,141,0.0,0.0,89,0.00,,,0.00,VWS V14.01,2013-09-08 13:10:00,
2013-09-08 08:15:00,73.0,69.2,29.95,SE,141,0.0,0.0,88,0.00,,,0.00,VWS V14.01,2013-09-08 13:15:00,
2013-09-08 08:20:00,73.2,69.8,29.95,SE,141,0.0,0.0,89,0.00,,,0.00,VWS V14.01,2013-09-08 13:20:00,
2013-09-08 08:25:00,73.3,69.9,29.95,SE,141,0.0,0.0,89,0.00,,,0.00,VWS V14.01,2013-09-08 13:25:00,
2013-09-08 08:30:00,73.4,70.0,29.96,SE,141,0.0,0.0,89,0.00,,,0.00,VWS V14.01,2013-09-08 13:30:00,
2013-09-08 08:35:00,73.5,69.7,29.96,NNE,22,0.0,0.0,88,0.00,,,0.00,VWS V14.01,2013-09-08 13:35:00,
2013-09-08 08:40:00,73.7,69.6,29.96,NNE,22,0.0,0.0,87,0.00,,,0.00,VWS V14.01,2013-09-08 13:40:00,
2013-09-08 08:45:00,74.1,69.7,29.96,ENE,63,0.0,0.0,86,0.00,,,0.00,VWS V14.01,2013-09-08 13:45:00,
2013-09-08 08:50:00,74.4,69.6,29.96,ENE,60,0.0,0.0,85,0.00,,,0.00,VWS V14.01,2013-09-08 13:50:00,
2013-09-08 08:55:00,74.8,70.0,29.96,NW,321,1.0,1.0,85,0.00,,,0.00,VWS V14.01,2013-09-08 13:55:00,
2013-09-08 09:00:00,75.2,70.0,29.96,NE,51,3.0,3.0,84,0.00,,,0.00,VWS V14.01,2013-09-08 14:00:00,
2013-09-08 09:05:00,75.5,70.0,29.96,East,97,0.0,0.0,83,0.00,,,0.00,VWS V14.01,2013-09-08 14:05:00,
2013-09-08 09:10:00,75.7,69.8,29.96,ENE,74,1.0,2.0,82,0.00,,,0.00,VWS V14.01,2013-09-08 14:10:00,
2013-09-08 09:15:00,75.8,69.9,29.97,NE,40,1.0,1.0,82,0.00,,,0.00,VWS V14.01,2013-09-08 14:15:00,
2013-09-08 09:20:00,75.9,70.4,29.97,NE,40,0.0,1.0,83,0.00,,,0.00,VWS V14.01,2013-09-08 14:20:00,
2013-09-08 09:25:00,76.0,70.1,29.97,ENE,58,0.0,0.0,82,0.00,,,0.00,VWS V14.01,2013-09-08 14:25:00,
2013-09-08 09:30:00,75.9,70.0,29.97,NNE,28,0.0,0.0,82,0.00,,,0.00,VWS V14.01,2013-09-08 14:30:00,
2013-09-08 09:35:00,75.9,70.0,29.97,NE,51,2.0,2.0,82,0.00,,,0.00,VWS V14.01,2013-09-08 14:35:00,
2013-09-08 09:40:00,75.9,70.0,29.97,NE,51,0.0,0.0,82,0.00,,,0.00,VWS V14.01,2013-09-08 14:40:00,
2013-09-08 09:45:00,76.0,70.1,29.97,NNE,31,0.0,1.0,82,0.00,,,0.00,VWS V14.01,2013-09-08 14:45:00,
2013-09-08 09:50:00,76.2,70.3,29.97,NNE,32,0.0,0.0,82,0.00,,,0.00,VWS V14.01,2013-09-08 14:50:00,
2013-09-08 09:55:00,76.4,70.5,29.97,NNE,32,0.0,0.0,82,0.00,,,0.00,VWS V14.01,2013-09-08 14:55:00,
2013-09-08 10:00:00,76.5,70.6,29.96,NNE,33,0.0,1.0,82,0.00,,,0.00,VWS V14.01,2013-09-08 15:00:00,
2013-09-08 10:05:00,76.6,70.7,29.97,NNE,33,0.0,0.0,82,0.00,,,0.00,VWS V14.01,2013-09-08 15:05:00,
2013-09-08 10:10:00,76.8,70.5,29.97,NNE,33,0.0,0.0,81,0.00,,,0.00,VWS V14.01,2013-09-08 15:10:00,
2013-09-08 10:15:00,77.0,70.7,29.96,NE,34,1.0,1.0,81,0.00,,,0.00,VWS V14.01,2013-09-08 15:15:00,
2013-09-08 10:20:00,77.3,71.0,29.96,NNE,32,0.0,0.0,81,0.00,,,0.00,VWS V14.01,2013-09-08 15:20:00,
2013-09-08 10:25:00,77.5,70.8,29.96,NNE,32,0.0,0.0,80,0.00,,,0.00,VWS V14.01,2013-09-08 15:25:00,
2013-09-08 10:30:00,77.6,70.9,29.96,NE,38,0.0,1.0,80,0.00,,,0.00,VWS V14.01,2013-09-08 15:30:00,
2013-09-08 10:35:00,77.7,70.7,29.96,NNE,32,0.0,0.0,79,0.00,,,0.00,VWS V14.01,2013-09-08 15:35:00,
2013-09-08 10:40:00,77.8,71.1,29.96,NNE,16,0.0,0.0,80,0.00,,,0.00,VWS V14.01,2013-09-08 15:40:00,
2013-09-08 10:45:00,78.0,71.0,29.96,NE,44,1.0,2.0,79,0.00,,,0.00,VWS V14.01,2013-09-08 15:45:00,
2013-09-08 10:50:00,78.1,71.1,29.95,ENE,57,0.0,1.0,79,0.00,,,0.00,VWS V14.01,2013-09-08 15:50:00,
2013-09-08 10:55:00,78.3,71.3,29.95,ENE,58,0.0,1.0,79,0.00,,,0.00,VWS V14.01,2013-09-08 15:55:00,
2013-09-08 11:00:00,78.5,71.4,29.95,ESE,107,1.0,2.0,79,0.00,,,0.00,VWS V14.01,2013-09-08 16:00:00,
2013-09-08 11:05:00,78.9,71.5,29.95,ENE,59,0.0,4.0,78,0.00,,,0.00,VWS V14.01,2013-09-08 16:05:00,
2013-09-08 11:10:00,79.0,71.2,29.95,ENE,59,0.0,0.0,77,0.00,,,0.00,VWS V14.01,2013-09-08 16:10:00,
2013-09-08 11:15:00,79.2,71.8,29.95,ENE,59,0.0,1.0,78,0.00,,,0.00,VWS V14.01,2013-09-08 16:15:00,
2013-09-08 11:20:00,79.4,71.6,29.95,ENE,59,1.0,1.0,77,0.00,,,0.00,VWS V14.01,2013-09-08 16:20:00,
2013-09-08 11:24:00,79.6,71.4,29.95,ENE,57,0.0,2.0,76,0.00,,,0.00,VWS V14.01,2013-09-08 16:24:00,
2013-09-08 11:29:00,79.6,71.4,29.95,ENE,57,0.0,1.0,76,0.00,,,0.00,VWS V14.01,2013-09-08 16:29:00,
2013-09-08 11:34:00,79.6,71.8,29.95,East,83,2.0,2.0,77,0.00,,,0.00,VWS V14.01,2013-09-08 16:34:00,
2013-09-08 11:39:00,79.8,71.9,29.95,ENE,60,0.0,1.0,77,0.00,,,0.00,VWS V14.01,2013-09-08 16:39:00,
2013-09-08 11:44:00,79.9,72.1,29.95,NE,40,0.0,1.0,77,0.00,,,0.00,VWS V14.01,2013-09-08 16:44:00,
2013-09-08 11:49:00,80.2,72.3,29.94,NE,48,0.0,3.0,77,0.00,,,0.00,VWS V14.01,2013-09-08 16:49:00,
2013-09-08 11:54:00,80.3,72.1,29.94,NE,34,2.0,2.0,76,0.00,,,0.00,VWS V14.01,2013-09-08 16:54:00,
2013-09-08 11:59:00,80.5,72.2,29.94,NE,37,1.0,2.0,76,0.00,,,0.00,VWS V14.01,2013-09-08 16:59:00,
2013-09-08 12:04:00,80.6,72.3,29.95,East,85,0.0,2.0,76,0.00,,,0.00,VWS V14.01,2013-09-08 17:04:00,
2013-09-08 12:09:00,80.9,72.2,29.94,ENE,73,3.0,3.0,75,0.00,,,0.00,VWS V14.01,2013-09-08 17:09:00,
2013-09-08 12:14:00,81.1,72.4,29.95,ENE,71,0.0,1.0,75,0.00,,,0.00,VWS V14.01,2013-09-08 17:14:00,
2013-09-08 12:19:00,81.2,72.1,29.94,NE,43,2.0,4.0,74,0.00,,,0.00,VWS V14.01,2013-09-08 17:19:00,
2013-09-08 12:24:00,81.4,72.3,29.94,ENE,60,0.0,1.0,74,0.00,,,0.00,VWS V14.01,2013-09-08 17:24:00,
2013-09-08 12:29:00,81.5,72.4,29.94,NE,42,0.0,1.0,74,0.00,,,0.00,VWS V14.01,2013-09-08 17:29:00,
2013-09-08 12:34:00,81.6,72.5,29.94,ENE,76,0.0,1.0,74,0.00,,,0.00,VWS V14.01,2013-09-08 17:34:00,
2013-09-08 12:39:00,82.0,72.5,29.94,NE,41,0.0,1.0,73,0.00,,,0.00,VWS V14.01,2013-09-08 17:39:00,
2013-09-08 12:44:00,82.4,72.5,29.94,NE,44,1.0,1.0,72,0.00,,,0.00,VWS V14.01,2013-09-08 17:44:00,
2013-09-08 12:49:00,82.7,72.3,29.94,East,88,0.0,2.0,71,0.00,,,0.00,VWS V14.01,2013-09-08 17:49:00,
2013-09-08 12:54:00,82.7,72.8,29.93,NE,50,0.0,1.0,72,0.00,,,0.00,VWS V14.01,2013-09-08 17:54:00,
2013-09-08 12:59:00,82.7,72.3,29.93,SSE,157,1.0,1.0,71,0.00,,,0.00,VWS V14.01,2013-09-08 17:59:00,
2013-09-08 13:04:00,82.7,72.3,29.93,NNE,30,0.0,0.0,71,0.00,,,0.00,VWS V14.01,2013-09-08 18:04:00,
2013-09-08 13:09:00,83.0,72.2,29.93,SSW,213,1.0,2.0,70,0.00,,,0.00,VWS V14.01,2013-09-08 18:09:00,
2013-09-08 13:14:00,83.2,72.0,29.93,SSW,213,0.0,1.0,69,0.00,,,0.00,VWS V14.01,2013-09-08 18:14:00,
2013-09-08 13:19:00,83.3,72.1,29.93,NW,315,0.0,0.0,69,0.00,,,0.00,VWS V14.01,2013-09-08 18:19:00,
2013-09-08 13:24:00,83.5,71.8,29.93,ENE,71,0.0,0.0,68,0.00,,,0.00,VWS V14.01,2013-09-08 18:24:00,
2013-09-08 13:29:00,83.8,71.7,29.92,East,88,0.0,0.0,67,0.00,,,0.00,VWS V14.01,2013-09-08 18:29:00,
2013-09-08 13:34:00,83.9,72.2,29.92,ENE,57,0.0,2.0,68,0.00,,,0.00,VWS V14.01,2013-09-08 18:34:00,
2013-09-08 13:39:00,84.2,72.5,29.92,NE,55,0.0,0.0,68,0.00,,,0.00,VWS V14.01,2013-09-08 18:39:00,
2013-09-08 13:44:00,84.3,72.6,29.92,NE,56,0.0,0.0,68,0.00,,,0.00,VWS V14.01,2013-09-08 18:44:00,
2013-09-08 13:49:00,84.4,72.2,29.92,NE,51,2.0,3.0,67,0.00,,,0.00,VWS V14.01,2013-09-08 18:49:00,
2013-09-08 13:54:00,84.4,72.2,29.92,NE,36,0.0,0.0,67,0.00,,,0.00,VWS V14.01,2013-09-08 18:54:00,
2013-09-08 13:59:00,84.5,72.3,29.91,NE,36,0.0,2.0,67,0.00,,,0.00,VWS V14.01,2013-09-08 18:59:00,
2013-09-08 14:04:00,84.6,72.4,29.91,NE,42,0.0,0.0,67,0.00,,,0.00,VWS V14.01,2013-09-08 19:04:00,
2013-09-08 14:09:00,84.6,72.0,29.91,NE,52,0.0,1.0,66,0.00,,,0.00,VWS V14.01,2013-09-08 19:09:00,
2013-09-08 14:14:00,84.8,72.6,29.91,NE,49,0.0,2.0,67,0.00,,,0.00,VWS V14.01,2013-09-08 19:14:00,
2013-09-08 14:19:00,85.0,72.4,29.90,SSW,200,0.0,0.0,66,0.00,,,0.00,VWS V14.01,2013-09-08 19:19:00,
2013-09-08 14:24:00,85.1,72.5,29.90,NE,51,1.0,3.0,66,0.00,,,0.00,VWS V14.01,2013-09-08 19:24:00,
2013-09-08 14:29:00,85.2,72.6,29.90,NE,51,0.0,0.0,66,0.00,,,0.00,VWS V14.01,2013-09-08 19:29:00,
2013-09-08 14:34:00,85.3,72.2,29.91,South,178,0.0,0.0,65,0.00,,,0.00,VWS V14.01,2013-09-08 19:34:00,
2013-09-08 14:39:00,85.2,72.1,29.90,South,178,0.0,1.0,65,0.00,,,0.00,VWS V14.01,2013-09-08 19:39:00,
2013-09-08 14:44:00,85.2,72.1,29.90,South,178,0.0,0.0,65,0.00,,,0.00,VWS V14.01,2013-09-08 19:44:00,
2013-09-08 14:49:00,85.2,72.1,29.90,South,184,0.0,0.0,65,0.00,,,0.00,VWS V14.01,2013-09-08 19:49:00,
2013-09-08 14:54:00,85.4,72.3,29.90,NE,45,0.0,1.0,65,0.00,,,0.00,VWS V14.01,2013-09-08 19:54:00,
2013-09-08 14:59:00,85.6,72.0,29.89,NE,45,0.0,0.0,64,0.00,,,0.00,VWS V14.01,2013-09-08 19:59:00,
2013-09-08 15:04:00,85.8,72.2,29.90,NE,45,0.0,0.0,64,0.00,,,0.00,VWS V14.01,2013-09-08 20:04:00,
2013-09-08 15:09:00,85.9,72.3,29.89,NE,45,0.0,0.0,64,0.00,,,0.00,VWS V14.01,2013-09-08 20:09:00,
2013-09-08 15:14:00,86.0,72.4,29.89,NE,48,1.0,2.0,64,0.00,,,0.00,VWS V14.01,2013-09-08 20:14:00,
2013-09-08 15:19:00,86.1,72.5,29.89,NE,48,0.0,0.0,64,0.00,,,0.00,VWS V14.01,2013-09-08 20:19:00,
2013-09-08 15:24:00,86.2,72.6,29.89,NE,55,0.0,0.0,64,0.00,,,0.00,VWS V14.01,2013-09-08 20:24:00,
2013-09-08 15:29:00,86.2,71.7,29.89,South,171,0.0,0.0,62,0.00,,,0.00,VWS V14.01,2013-09-08 20:29:00,
2013-09-08 15:34:00,86.2,72.1,29.89,East,91,1.0,1.0,63,0.00,,,0.00,VWS V14.01,2013-09-08 20:34:00,
2013-09-08 15:39:00,86.3,72.2,29.89,NE,49,0.0,0.0,63,0.00,,,0.00,VWS V14.01,2013-09-08 20:39:00,
2013-09-08 15:44:00,86.3,71.3,29.88,SSW,198,0.0,0.0,61,0.00,,,0.00,VWS V14.01,2013-09-08 20:44:00,
2013-09-08 15:49:00,86.3,71.8,29.88,SSW,198,0.0,0.0,62,0.00,,,0.00,VWS V14.01,2013-09-08 20:49:00,
2013-09-08 15:54:00,86.2,71.7,29.88,SSW,198,0.0,0.0,62,0.00,,,0.00,VWS V14.01,2013-09-08 20:54:00,
2013-09-08 15:59:00,86.2,71.7,29.88,NE,40,0.0,1.0,62,0.00,,,0.00,VWS V14.01,2013-09-08 20:59:00,
2013-09-08 16:04:00,86.2,71.7,29.88,ESE,106,0.0,0.0,62,0.00,,,0.00,VWS V14.01,2013-09-08 21:04:00,
2013-09-08 16:09:00,86.3,71.8,29.88,SSW,192,0.0,0.0,62,0.00,,,0.00,VWS V14.01,2013-09-08 21:09:00,
2013-09-08 16:14:00,86.3,72.2,29.88,SSW,192,0.0,0.0,63,0.00,,,0.00,VWS V14.01,2013-09-08 21:14:00,
2013-09-08 16:19:00,86.3,71.8,29.88,SSW,192,1.0,1.0,62,0.00,,,0.00,VWS V14.01,2013-09-08 21:19:00,
2013-09-08 16:24:00,86.3,72.7,29.88,SSW,192,0.0,0.0,64,0.00,,,0.00,VWS V14.01,2013-09-08 21:24:00,
2013-09-08 16:29:00,86.3,72.2,29.88,SSE,150,0.0,0.0,63,0.00,,,0.00,VWS V14.01,2013-09-08 21:29:00,
2013-09-08 16:34:00,86.3,72.2,29.87,ENE,63,0.0,0.0,63,0.00,,,0.00,VWS V14.01,2013-09-08 21:34:00,
2013-09-08 16:39:00,86.3,72.2,29.87,ESE,107,0.0,1.0,63,0.00,,,0.00,VWS V14.01,2013-09-08 21:39:00,
2013-09-08 16:44:00,86.3,72.2,29.88,SSE,165,0.0,1.0,63,0.00,,,0.00,VWS V14.01,2013-09-08 21:44:00,
2013-09-08 16:49:00,86.3,71.8,29.88,SSE,166,0.0,0.0,62,0.00,,,0.00,VWS V14.01,2013-09-08 21:49:00,
2013-09-08 16:54:00,86.2,72.1,29.88,SSE,166,0.0,0.0,63,0.00,,,0.00,VWS V14.01,2013-09-08 21:54:00,
2013-09-08 16:59:00,86.1,72.0,29.88,SSE,166,0.0,0.0,63,0.00,,,0.00,VWS V14.01,2013-09-08 21:59:00,
2013-09-08 17:04:00,86.0,71.9,29.88,South,169,0.0,3.0,63,0.00,,,0.00,VWS V14.01,2013-09-08 22:04:00,
2013-09-08 17:09:00,85.9,71.8,29.87,SSE,163,0.0,0.0,63,0.00,,,0.00,VWS V14.01,2013-09-08 22:09:00,
2013-09-08 17:14:00,85.8,72.2,29.87,SSE,166,0.0,1.0,64,0.00,,,0.00,VWS V14.01,2013-09-08 22:14:00,
2013-09-08 17:19:00,85.8,72.7,29.88,SSE,166,1.0,2.0,65,0.00,,,0.00,VWS V14.01,2013-09-08 22:19:00,
2013-09-08 17:24:00,85.7,72.6,29.87,SSE,166,0.0,0.0,65,0.00,,,0.00,VWS V14.01,2013-09-08 22:24:00,
2013-09-08 17:29:00,85.6,72.0,29.87,SSE,166,0.0,1.0,64,0.00,,,0.00,VWS V14.01,2013-09-08 22:29:00,
2013-09-08 17:34:00,85.5,71.9,29.87,South,178,0.0,0.0,64,0.00,,,0.00,VWS V14.01,2013-09-08 22:34:00,
2013-09-08 17:39:00,85.4,72.3,29.87,South,178,0.0,0.0,65,0.00,,,0.00,VWS V14.01,2013-09-08 22:39:00,
2013-09-08 17:44:00,85.3,72.7,29.87,South,178,0.0,0.0,66,0.00,,,0.00,VWS V14.01,2013-09-08 22:44:00,
2013-09-08 17:49:00,85.2,72.6,29.87,South,178,0.0,0.0,66,0.00,,,0.00,VWS V14.01,2013-09-08 22:49:00,
2013-09-08 17:54:00,85.0,72.4,29.88,South,178,0.0,0.0,66,0.00,,,0.00,VWS V14.01,2013-09-08 22:54:00,
2013-09-08 17:59:00,84.9,72.7,29.88,South,178,0.0,0.0,67,0.00,,,0.00,VWS V14.01,2013-09-08 22:59:00,
2013-09-08 18:04:00,84.8,72.6,29.88,South,178,0.0,0.0,67,0.00,,,0.00,VWS V14.01,2013-09-08 23:04:00,
2013-09-08 18:09:00,84.6,72.4,29.88,South,178,0.0,0.0,67,0.00,,,0.00,VWS V14.01,2013-09-08 23:09:00,
2013-09-08 18:14:00,84.5,72.3,29.88,South,178,0.0,0.0,67,0.00,,,0.00,VWS V14.01,2013-09-08 23:14:00,
2013-09-08 18:19:00,84.3,72.6,29.88,South,178,0.0,0.0,68,0.00,,,0.00,VWS V14.01,2013-09-08 23:19:00,
2013-09-08 18:24:00,84.2,72.5,29.87,South,178,0.0,0.0,68,0.00,,,0.00,VWS V14.01,2013-09-08 23:24:00,
2013-09-08 18:29:00,84.0,72.3,29.88,South,178,0.0,0.0,68,0.00,,,0.00,VWS V14.01,2013-09-08 23:29:00,
2013-09-08 18:34:00,83.8,72.6,29.88,South,178,0.0,0.0,69,0.00,,,0.00,VWS V14.01,2013-09-08 23:34:00,
2013-09-08 18:39:00,83.6,72.4,29.88,South,178,0.0,0.0,69,0.00,,,0.00,VWS V14.01,2013-09-08 23:39:00,
2013-09-08 18:44:00,83.4,72.6,29.88,South,178,0.0,0.0,70,0.00,,,0.00,VWS V14.01,2013-09-08 23:44:00,
2013-09-08 18:49:00,83.3,72.5,29.88,South,178,0.0,0.0,70,0.00,,,0.00,VWS V14.01,2013-09-08 23:49:00,
2013-09-08 18:54:00,83.1,72.7,29.88,South,178,0.0,0.0,71,0.00,,,0.00,VWS V14.01,2013-09-08 23:54:00,
2013-09-08 18:59:00,82.9,72.5,29.88,South,178,0.0,0.0,71,0.00,,,0.00,VWS V14.01,2013-09-08 23:59:00,
2013-09-08 19:04:00,82.7,72.8,29.88,South,178,0.0,0.0,72,0.00,,,0.00,VWS V14.01,2013-09-09 00:04:00,
2013-09-08 19:09:00,82.5,72.6,29.88,South,178,0.0,0.0,72,0.00,,,0.00,VWS V14.01,2013-09-09 00:09:00,
2013-09-08 19:14:00,82.3,72.8,29.88,South,178,0.0,0.0,73,0.00,,,0.00,VWS V14.01,2013-09-09 00:14:00,
2013-09-08 19:19:00,82.0,72.9,29.88,South,178,0.0,0.0,74,0.00,,,0.00,VWS V14.01,2013-09-09 00:19:00,
2013-09-08 19:24:00,81.8,72.7,29.88,South,178,0.0,0.0,74,0.00,,,0.00,VWS V14.01,2013-09-09 00:24:00,
2013-09-08 19:29:00,81.5,72.8,29.89,South,178,0.0,0.0,75,0.00,,,0.00,VWS V14.01,2013-09-09 00:29:00,
2013-09-08 19:34:00,81.2,72.5,29.89,South,178,0.0,0.0,75,0.00,,,0.00,VWS V14.01,2013-09-09 00:34:00,
2013-09-08 19:39:00,81.0,72.7,29.89,South,178,0.0,0.0,76,0.00,,,0.00,VWS V14.01,2013-09-09 00:39:00,
2013-09-08 19:44:00,80.7,72.4,29.89,South,178,0.0,0.0,76,0.00,,,0.00,VWS V14.01,2013-09-09 00:44:00,
2013-09-08 19:49:00,80.4,72.5,29.89,South,178,0.0,0.0,77,0.00,,,0.00,VWS V14.01,2013-09-09 00:49:00,
2013-09-08 19:54:00,80.1,72.6,29.89,South,178,0.0,0.0,78,0.00,,,0.00,VWS V14.01,2013-09-09 00:54:00,
2013-09-08 19:59:00,79.8,72.3,29.89,South,178,0.0,0.0,78,0.00,,,0.00,VWS V14.01,2013-09-09 00:59:00,
2013-09-08 20:04:00,79.5,72.4,29.89,South,178,0.0,0.0,79,0.00,,,0.00,VWS V14.01,2013-09-09 01:04:00,
2013-09-08 20:09:00,79.2,72.1,29.89,South,178,0.0,0.0,79,0.00,,,0.00,VWS V14.01,2013-09-09 01:09:00,
2013-09-08 20:14:00,78.9,71.8,29.89,South,178,0.0,0.0,79,0.00,,,0.00,VWS V14.01,2013-09-09 01:14:00,
2013-09-08 20:19:00,78.7,71.6,29.89,South,178,0.0,0.0,79,0.00,,,0.00,VWS V14.01,2013-09-09 01:19:00,
2013-09-08 20:24:00,78.5,71.8,29.89,South,178,0.0,0.0,80,0.00,,,0.00,VWS V14.01,2013-09-09 01:24:00,
2013-09-08 20:29:00,78.3,72.0,29.90,South,178,0.0,0.0,81,0.00,,,0.00,VWS V14.01,2013-09-09 01:29:00,
2013-09-08 20:34:00,78.2,71.9,29.89,South,178,0.0,0.0,81,0.00,,,0.00,VWS V14.01,2013-09-09 01:34:00,
2013-09-08 20:39:00,77.9,71.6,29.90,South,178,0.0,0.0,81,0.00,,,0.00,VWS V14.01,2013-09-09 01:39:00,
2013-09-08 20:43:00,77.7,71.4,29.89,South,178,0.0,0.0,81,0.00,,,0.00,VWS V14.01,2013-09-09 01:43:00,
2013-09-08 20:48:00,77.5,71.6,29.90,South,178,0.0,0.0,82,0.00,,,0.00,VWS V14.01,2013-09-09 01:48:00,
2013-09-08 20:53:00,77.3,71.4,29.90,South,178,0.0,0.0,82,0.00,,,0.00,VWS V14.01,2013-09-09 01:53:00,
2013-09-08 20:58:00,77.0,71.1,29.90,South,178,0.0,0.0,82,0.00,,,0.00,VWS V14.01,2013-09-09 01:58:00,
2013-09-08 21:03:00,76.8,71.2,29.90,South,178,0.0,0.0,83,0.00,,,0.00,VWS V14.01,2013-09-09 02:03:00,
2013-09-08 21:08:00,76.6,71.1,29.90,South,178,0.0,0.0,83,0.00,,,0.00,VWS V14.01,2013-09-09 02:08:00,
2013-09-08 21:13:00,76.4,70.9,29.90,South,178,0.0,0.0,83,0.00,,,0.00,VWS V14.01,2013-09-09 02:13:00,
2013-09-08 21:18:00,76.2,71.0,29.90,South,178,0.0,0.0,84,0.00,,,0.00,VWS V14.01,2013-09-09 02:18:00,
2013-09-08 21:23:00,76.1,70.9,29.90,South,178,0.0,0.0,84,0.00,,,0.00,VWS V14.01,2013-09-09 02:23:00,
2013-09-08 21:28:00,75.9,70.7,29.90,South,178,0.0,0.0,84,0.00,,,0.00,VWS V14.01,2013-09-09 02:28:00,
2013-09-08 21:33:00,75.7,70.9,29.90,South,178,0.0,0.0,85,0.00,,,0.00,VWS V14.01,2013-09-09 02:33:00,
2013-09-08 21:38:00,75.6,70.8,29.90,South,178,0.0,0.0,85,0.00,,,0.00,VWS V14.01,2013-09-09 02:38:00,
2013-09-08 21:43:00,75.4,70.6,29.90,South,178,0.0,0.0,85,0.00,,,0.00,VWS V14.01,2013-09-09 02:43:00,
2013-09-08 21:48:00,75.3,70.8,29.90,South,178,0.0,0.0,86,0.00,,,0.00,VWS V14.01,2013-09-09 02:48:00,
2013-09-08 21:53:00,75.1,70.6,29.90,South,178,0.0,0.0,86,0.00,,,0.00,VWS V14.01,2013-09-09 02:53:00,
2013-09-08 21:58:00,75.0,70.5,29.90,South,178,0.0,0.0,86,0.00,,,0.00,VWS V14.01,2013-09-09 02:58:00,
2013-09-08 22:03:00,74.9,70.4,29.90,South,178,0.0,0.0,86,0.00,,,0.00,VWS V14.01,2013-09-09 03:03:00,
2013-09-08 22:08:00,74.8,70.7,29.90,South,178,0.0,0.0,87,0.00,,,0.00,VWS V14.01,2013-09-09 03:08:00,
2013-09-08 22:13:00,74.7,70.6,29.90,South,178,0.0,0.0,87,0.00,,,0.00,VWS V14.01,2013-09-09 03:13:00,
2013-09-08 22:18:00,74.6,70.5,29.90,South,178,0.0,0.0,87,0.00,,,0.00,VWS V14.01,2013-09-09 03:18:00,
2013-09-08 22:23:00,74.5,70.4,29.90,South,178,0.0,0.0,87,0.00,,,0.00,VWS V14.01,2013-09-09 03:23:00,
2013-09-08 22:28:00,74.4,70.3,29.90,South,178,0.0,0.0,87,0.00,,,0.00,VWS V14.01,2013-09-09 03:28:00,
2013-09-08 22:33:00,74.4,70.3,29.91,South,178,0.0,0.0,87,0.00,,,0.00,VWS V14.01,2013-09-09 03:33:00,
2013-09-08 22:38:00,74.4,70.3,29.90,South,178,0.0,0.0,87,0.00,,,0.00,VWS V14.01,2013-09-09 03:38:00,
2013-09-08 22:43:00,74.4,69.9,29.91,South,178,0.0,0.0,86,0.00,,,0.00,VWS V14.01,2013-09-09 03:43:00,
2013-09-08 22:48:00,74.3,69.8,29.91,South,178,0.0,0.0,86,0.00,,,0.00,VWS V14.01,2013-09-09 03:48:00,
2013-09-08 22:53:00,74.3,69.8,29.91,South,178,0.0,0.0,86,0.00,,,0.00,VWS V14.01,2013-09-09 03:53:00,
2013-09-08 22:58:00,74.3,69.5,29.91,South,178,0.0,0.0,85,0.00,,,0.00,VWS V14.01,2013-09-09 03:58:00,
2013-09-08 23:01:00,74.3,69.5,29.91,South,178,0.0,0.0,85,0.00,,,0.00,VWS V14.01,2013-09-09 04:01:00,
2013-09-08 23:06:00,74.2,69.4,29.91,South,178,0.0,0.0,85,0.00,,,0.00,VWS V14.01,2013-09-09 04:06:00,
2013-09-08 23:11:00,74.2,69.4,29.91,South,178,0.0,0.0,85,0.00,,,0.00,VWS V14.01,2013-09-09 04:11:00,
2013-09-08 23:16:00,74.2,69.8,29.91,South,178,0.0,0.0,86,0.00,,,0.00,VWS V14.01,2013-09-09 04:16:00,
2013-09-08 23:21:00,74.1,69.7,29.91,South,178,0.0,0.0,86,0.00,,,0.00,VWS V14.01,2013-09-09 04:21:00,
2013-09-08 23:26:00,74.0,69.6,29.91,South,178,0.0,0.0,86,0.00,,,0.00,VWS V14.01,2013-09-09 04:26:00,
2013-09-08 23:31:00,74.0,69.6,29.91,South,178,0.0,0.0,86,0.00,,,0.00,VWS V14.01,2013-09-09 04:31:00,
2013-09-08 23:36:00,73.9,69.4,29.91,South,178,0.0,0.0,86,0.00,,,0.00,VWS V14.01,2013-09-09 04:36:00,
2013-09-08 23:41:00,73.8,69.3,29.91,South,178,0.0,0.0,86,0.00,,,0.00,VWS V14.01,2013-09-09 04:41:00,
2013-09-08 23:46:00,73.7,69.6,29.91,South,178,0.0,0.0,87,0.00,,,0.00,VWS V14.01,2013-09-09 04:46:00,
2013-09-08 23:51:00,73.6,69.5,29.91,South,178,0.0,0.0,87,0.00,,,0.00,VWS V14.01,2013-09-09 04:51:00,
2013-09-08 23:56:00,73.5,69.4,29.91,South,178,0.0,0.0,87,0.00,,,0.00,VWS V14.01,2013-09-09 04:56:00,